Lid_Strength_Index
-0 -0 -0 -0 -0 -0 -0 0 -0 1 3 3 3 3 2 1 1 4 5 2 2 0 0 4 5 5 6 7 6 7 12 13 12 11 11 9 11 8 7 8 7 5 5 4 2
0 -0 -0 -0 -0 -0 -0 0 0 0 0 2 3 3 3 3 5 4 2 1 1 1 5 6 7 7 8 8 8 10 13 12 10 10 11 9 10 10 9 8 8 6 4 3 3
1 0 0 -0 -1 -1 -1 -0 -0 0 0 0 0 1 2 4 9 8 3 1 1 2 4 5 5 7 9 9 9 10 12 10 9 9 9 10 10 8 9 10 8 6 6 4 4
1 1 0 0 -0 -1 -1 -1 -0 0 1 1 0 0 0 5 14 8 3 3 2 3 4 5 6 8 9 11 9 11 9 9 8 8 9 11 9 10 9 10 7 6 4 4 5
1 1 1 0 -0 -0 -1 -1 -0 0 0 0 0 0 2 7 8 4 3 3 5 5 7 6 8 8 11 10 9 11 11 9 9 9 10 9 10 11 10 9 8 7 7 5 4
2 1 1 1 0 -0 -0 -0 -0 -0 -0 0 1 -0 5 10 3 2 4 4 5 7 9 8 7 6 9 9 10 9 9 10 9 10 10 11 11 10 11 9 9 9 8 8 7
2 1 1 1 0 0 0 0 -0 -0 -1 0 0 2 6 8 3 3 3 4 4 6 8 8 7 8 8 10 8 9 11 10 10 10 10 9 12 12 10 9 9 9 9 8 8
2 2 1 1 1 1 1 0 0 0 -0 -0 -0 2 7 2 2 4 3 3 2 3 6 6 6 8 10 9 10 12 12 15 10 9 9 10 15 10 9 10 10 10 10 9 8
2 2 2 1 1 1 1 -1 0 1 0 -0 2 3 8 1 5 4 3 5 3 2 3 4 7 10 10 13 15 14 17 15 13 8 9 10 14 10 8 9 10 10 10 9 9
2 2 2 2 2 2 1 -0 0 0 1 2 3 6 5 6 4 3 3 4 5 4 4 5 7 11 13 15 20 17 17 15 15 12 10 12 13 12 9 10 11 10 11 10 10
2 3 2 2 2 2 3 4 6 6 5 7 7 6 5 3 2 4 3 4 5 6 11 8 11 12 11 12 14 14 16 17 15 12 14 14 15 14 12 11 12 11 11 11 11
3 2 2 2 2 2 4 7 7 6 10 5 5 5 4 3 7 5 3 8 8 11 10 11 13 10 9 9 11 13 16 16 14 12 13 15 16 14 13 13 12 12 13 12 9
3 2 2 2 2 3 5 6 3 4 9 8 6 6 6 6 8 8 5 8 10 11 11 13 11 9 10 11 12 12 13 14 15 13 13 15 17 15 14 12 12 11 11 11 11
3 2 2 3 4 5 6 4 3 3 11 12 9 6 7 6 9 5 5 7 9 12 11 11 9 11 11 11 11 14 10 11 13 14 18 13 22 17 15 14 13 12 12 11 11
3 3 3 3 5 7 5 3 4 5 19 11 10 5 6 9 9 7 4 7 11 11 11 13 12 12 12 12 10 13 9 11 12 13 14 15 18 19 13 14 14 13 12 12 12
3 3 3 5 4 5 4 3 6 13 20 13 9 10 10 9 9 7 8 6 7 10 10 11 8 9 10 9 10 9 11 11 12 14 19 16 16 19 15 13 11 11 13 12 12
3 3 5 4 7 4 3 6 14 18 13 14 13 11 12 12 11 10 11 11 13 17 15 12 12 10 8 11 10 10 14 19 19 20 19 14 15 15 12 10 10 11 12 12 11
3 4 4 5 3 3 5 10 21 18 15 12 12 12 13 12 12 12 12 14 11 12 14 16 18 12 9 11 13 12 13 18 22 21 19 15 17 15 11 9 9 10 11 11 12
3 4 5 4 3 4 9 17 18 16 14 14 13 15 14 12 13 13 14 14 12 11 17 17 16 10 10 9 10 12 15 12 17 18 20 18 14 10 11 11 10 10 10 11 11
5 6 7 4 4 6 12 15 17 13 13 13 17 15 17 14 15 15 14 12 12 10 11 13 17 12 11 10 9 11 10 16 15 23 23 19 18 17 13 12 11 11 11 11 10
6 11 7 4 5 10 16 16 15 12 12 14 15 16 15 15 15 15 15 11 10 10 10 12 14 14 12 13 13 13 14 13 13 15 19 20 19 13 10 9 10 9 8 9 10
8 14 7 5 12 12 15 16 12 13 11 12 12 14 15 14 16 15 14 12 9 9 13 10 12 17 15 11 9 11 12 13 18 18 16 16 17 10 9 9 9 9 8 9 8
12 12 7 7 15 14 14 15 13 13 13 13 15 13 12 14 19 14 13 10 9 10 12 11 17 20 18 14 11 12 12 11 14 13 16 18 17 9 9 9 9 9 8 9 9
12 14 12 11 11 13 14 15 16 11 12 12 12 12 13 16 12 16 13 11 9 9 7 8 16 17 20 17 13 14 12 11 13 17 16 15 14 11 10 9 9 9 9 8 8
12 13 12 16 15 14 14 15 15 16 12 11 13 12 13 15 14 14 12 11 10 8 9 11 17 15 14 13 12 13 13 12 13 13 16 14 14 11 10 9 8 7 7 7 6
12 13 14 13 13 14 13 15 15 13 13 14 14 12 12 14 13 13 11 11 12 10 11 10 15 13 16 13 13 15 14 14 13 13 13 12 13 9 8 7 8 7 7 7 7
11 12 12 13 14 15 14 14 13 12 11 11 11 12 13 11 9 8 8 8 10 12 13 13 15 18 19 14 14 20 16 14 13 12 12 15 11 8 9 8 8 8 7 7 7